2010,06,01,00,05,-3.51,1,-99999,99,-3.16,1,22.69,1,100.1,1,23.22,1,2.92,1,193.1,1,4.38,1,1015.6,1,12.7,1,121.68,1
2010,06,01,00,10,-3.48,1,-99999,99,-3.18,1,22.65,1,100.4,1,23.13,1,3.01,1,192,1,5.33,1,1015.6,1,12.69,1,121.66,1
2010,06,01,00,15,-3.19,1,-99999,99,-2.84,1,22.64,1,100.7,1,23.04,1,3.16,1,192.4,1,5.14,1,1015.6,1,12.69,1,121.61,1
2010,06,01,00,20,-2.87,1,-99999,99,-2.64,1,22.61,1,101.2,1,22.96,1,3.28,1,193.6,1,4.95,1,1015.6,1,12.69,1,121.54,1
2010,06,01,00,25,-3.23,1,-99999,99,-2.98,1,22.53,1,101.7,1,22.88,1,3.07,1,192.7,1,5.14,1,1015.5,1,12.69,1,121.44,1
2010,06,01,00,30,-3.27,1,-99999,99,-2.99,1,22.46,1,102.2,1,22.81,1,3.1,1,196.9,1,5.14,1,1015.5,1,12.64,1,121.32,1
2010,06,01,00,35,-3.32,1,-99999,99,-3.03,1,22.42,1,102.7,1,22.74,1,3.21,1,194.9,1,5.33,1,1015.5,1,12.68,1,121.18,1
2010,06,01,00,40,-2.69,1,-99999,99,-2.58,1,22.41,1,102.9,1,22.67,1,2.73,1,187.8,1,4.19,1,1015.5,1,12.68,1,121.02,1
2010,06,01,00,45,-2.55,1,-99999,99,-2.38,1,22.38,1,103.2,1,22.61,1,3.21,1,197,1,5.52,1,1015.5,1,12.68,1,120.83,1
2010,06,01,00,50,-2.16,1,-99999,99,-2.12,1,22.35,1,103.3,1,22.55,1,3.05,1,188,1,4.76,1,1015.5,1,12.68,1,120.62,1
2010,06,01,00,55,-1.86,1,-99999,99,-1.86,1,22.35,1,103.3,1,22.5,1,3.32,1,192.6,1,5.52,1,1015.5,1,12.68,1,120.38,1
2010,06,01,01,00,-1.83,1,-99999,99,-1.8,1,22.35,1,103.4,1,22.45,1,3.15,1,194.6,1,5.52,1,1015.5,1,12.68,1,120.12,1
2010,06,01,01,05,-2.16,1,-99999,99,-2.08,1,22.34,1,103.4,1,22.4,1,2.8,1,187.1,1,4.38,1,1015.5,1,12.68,1,119.85,1
2010,06,01,01,10,-2.27,1,-99999,99,-2.15,1,22.32,1,103.6,1,22.37,1,2.54,1,189.5,1,5.33,1,1015.5,1,12.67,1,119.54,1
2010,06,01,01,15,-2.24,1,-99999,99,-2.15,1,22.27,1,103.8,1,22.34,1,2.57,1,193.3,1,4.57,1,1015.5,1,12.67,1,119.22,1
2010,06,01,01,20,-2.07,1,-99999,99,-2.11,1,22.22,1,104.1,1,22.31,1,2.94,1,193.5,1,4.76,1,1015.5,1,12.67,1,118.88,1
2010,06,01,01,25,-1.83,1,-99999,99,-1.85,1,22.19,1,104.2,1,22.28,1,2.89,1,193,1,5.33,1,1015.5,1,12.67,1,118.52,1
2010,06,01,01,30,-1.67,1,-99999,99,-1.57,1,22.18,1,104.3,1,22.26,1,3.05,1,190.6,1,6.09,1,1015.5,1,12.62,1,118.13,1
2010,06,01,01,35,-1.39,1,-99999,99,-1.31,1,22.19,1,104.2,1,22.23,1,3.18,1,195,1,5.14,1,1015.4,1,12.66,1,117.73,1
2010,06,01,01,40,-1.26,1,-99999,99,-1.26,1,22.21,1,104.2,1,22.21,1,3.04,1,193.1,1,4.76,1,1015.4,1,12.66,1,117.3,1
2010,06,01,01,45,-1.54,1,-99999,99,-1.32,1,22.22,1,104.1,1,22.2,1,3.09,1,190,1,5.33,1,1015.4,1,12.66,1,116.86,1
2010,06,01,01,50,-1.7,1,-99999,99,-1.49,1,22.24,1,104,1,22.18,1,3.35,1,192.5,1,5.52,1,1015.3,1,12.66,1,116.4,1
2010,06,01,01,55,-2.14,1,-99999,99,-2.05,1,22.24,1,104,1,22.18,1,2.94,1,188.6,1,4.38,1,1015.4,1,12.66,1,115.92,1
2010,06,01,02,00,-2.22,1,-99999,99,-2.12,1,22.23,1,104,1,22.18,1,3.26,1,193.1,1,5.33,1,1015.3,1,12.66,1,115.42,1
2010,06,01,02,05,-2.28,1,-99999,99,-2.14,1,22.21,1,104.1,1,22.16,1,2.72,1,189.9,1,4,1,1015.3,1,12.66,1,114.9,1
2010,06,01,02,10,-1.98,1,-99999,99,-1.92,1,22.18,1,104.1,1,22.16,1,2.75,1,194.6,1,4.95,1,1015.3,1,12.66,1,114.37,1
2010,06,01,02,15,-1.65,1,-99999,99,-1.53,1,22.16,1,104.2,1,22.14,1,3,1,190.6,1,5.14,1,1015.3,1,12.66,1,113.82,1
2010,06,01,02,20,-1.62,1,-99999,99,-1.41,1,22.17,1,104.2,1,22.13,1,3.01,1,199.8,1,5.14,1,1015.3,1,12.66,1,113.26,1
2010,06,01,02,25,-2.03,1,-99999,99,-1.97,1,22.15,1,104.3,1,22.11,1,2.83,1,189.4,1,4.76,1,1015.3,1,12.66,1,112.67,1
2010,06,01,02,30,-2.28,1,-99999,99,-2.14,1,22.13,1,104.3,1,22.11,1,2.99,1,192.1,1,4.76,1,1015.3,1,12.61,1,112.08,1
2010,06,01,02,35,-2.31,1,-99999,99,-2.15,1,22.12,1,104.3,1,22.09,1,3.4,1,191.9,1,5.9,1,1015.2,1,12.65,1,111.47,1
2010,06,01,02,40,-2.43,1,-99999,99,-2.14,1,22.11,1,104.3,1,22.08,1,3.23,1,193.7,1,5.33,1,1015.1,1,12.66,1,110.84,1
2010,06,01,02,45,-2.52,1,-99999,99,-2.17,1,22.08,1,104.3,1,22.07,1,3.07,1,195,1,4.95,1,1015.1,1,12.66,1,110.2,1
2010,06,01,02,50,-2.28,1,-99999,99,-2.12,1,22.05,1,104.3,1,22.05,1,3.38,1,192,1,5.52,1,1015.1,1,12.65,1,109.54,1
2010,06,01,02,55,-1.87,1,-99999,99,-1.96,1,22.03,1,104.2,1,22.03,1,3.06,1,192.8,1,5.52,1,1015.1,1,12.65,1,108.88,1
2010,06,01,03,00,-1.81,1,-99999,99,-1.78,1,22,1,104.3,1,22.01,1,3.1,1,193.2,1,5.14,1,1015,1,12.65,1,108.2,1
2010,06,01,03,05,-1.6,1,-99999,99,-1.43,1,21.98,1,104.3,1,22,1,2.42,1,196.1,1,4.76,1,1015,1,12.65,1,107.5,1
2010,06,01,03,10,-1.47,1,-99999,99,-1.37,1,21.99,1,104.3,1,21.98,1,2.97,1,191.6,1,5.14,1,1015,1,12.65,1,106.8,1
2010,06,01,03,15,-0.94,1,-99999,99,-1.13,1,22.02,1,104.2,1,21.97,1,2.87,1,196,1,4.76,1,1015,1,12.65,1,106.08,1
2010,06,01,03,20,-0.96,1,-99999,99,-1.11,1,22.02,1,104.3,1,21.96,1,2.86,1,190.3,1,5.14,1,1015,1,12.65,1,105.35,1
2010,06,01,03,25,-0.9,1,-99999,99,-0.97,1,22.02,1,104.4,1,21.96,1,2.75,1,190.2,1,4.38,1,1015,1,12.65,1,104.61,1
2010,06,01,03,30,-0.89,1,-99999,99,-1.02,1,22.02,1,104.4,1,21.96,1,2.4,1,187.7,1,4.19,1,1015,1,12.6,1,103.86,1
2010,06,01,03,35,-0.92,1,-99999,99,-0.98,1,22.02,1,104.5,1,21.95,1,2.81,1,193.1,1,4.38,1,1014.9,1,12.64,1,103.1,1
2010,06,01,03,40,-0.89,1,-99999,99,-0.87,1,22.04,1,104.4,1,21.96,1,2.55,1,188.8,1,4.95,1,1014.9,1,12.65,1,102.32,1
2010,06,01,03,45,-0.89,1,-99999,99,-0.86,1,22.09,1,104.2,1,21.96,1,3.52,1,192.5,1,6.47,1,1014.8,1,12.65,1,101.54,1
2010,06,01,03,50,-0.89,1,-99999,99,-0.89,1,22.12,1,104,1,21.96,1,2.41,1,187.5,1,4.57,1,1014.8,1,12.65,1,100.75,1
2010,06,01,03,55,-0.89,1,-99999,99,-0.87,1,22.12,1,104,1,21.96,1,3.2,1,194.8,1,5.33,1,1014.7,1,12.65,1,99.95,1
2010,06,01,04,00,-0.89,1,-99999,99,-0.86,1,22.13,1,103.9,1,21.98,1,2.59,1,190,1,4.57,1,1014.7,1,12.65,1,99.14,1
2010,06,01,04,05,-0.89,1,-99999,99,-0.86,1,22.13,1,103.9,1,21.98,1,3.36,1,190.2,1,5.52,1,1014.7,1,12.65,1,98.32,1
2010,06,01,04,10,-0.89,1,-99999,99,-0.86,1,22.15,1,103.8,1,21.99,1,2.76,1,187.1,1,4.76,1,1014.7,1,12.65,1,97.5,1
2010,06,01,04,15,-0.89,1,-99999,99,-0.86,1,22.16,1,103.8,1,22.01,1,2.73,1,197.4,1,4.19,1,1014.7,1,12.65,1,96.66,1
2010,06,01,04,20,-0.89,1,-99999,99,-0.86,1,22.16,1,103.8,1,22.03,1,2.55,1,189.4,1,4.95,1,1014.7,1,12.65,1,95.82,1
2010,06,01,04,25,-0.89,1,-99999,99,-0.88,1,22.16,1,103.8,1,22.04,1,3.32,1,191.7,1,5.14,1,1014.7,1,12.65,1,94.97,1
2010,06,01,04,30,-0.89,1,-99999,99,-0.86,1,22.18,1,103.7,1,22.06,1,3.04,1,191.2,1,5.33,1,1014.7,1,12.6,1,94.11,1
2010,06,01,04,35,-0.89,1,-99999,99,-0.86,1,22.2,1,103.6,1,22.08,1,2.8,1,190.6,1,5.71,1,1014.8,1,12.64,1,93.25,1
2010,06,01,04,40,-0.8,1,-99999,99,-0.83,1,22.19,1,103.7,1,22.08,1,2.69,1,192.6,1,4.19,1,1014.8,1,12.65,1,92.38,1
2010,06,01,04,45,-0.15,1,-99999,99,-0.25,1,22.18,1,103.7,1,22.11,1,2.89,1,200.3,1,5.33,1,1014.8,1,12.65,1,91.5,1
2010,06,01,04,50,0.63,1,-99999,99,0.47,1,22.18,1,103.7,1,22.12,1,2.86,1,197.9,1,5.33,1,1014.8,1,12.65,1,90.61,1
2010,06,01,04,55,1.43,1,-99999,99,1.23,1,22.18,1,103.8,1,22.13,1,2.85,1,190.3,1,4.95,1,1014.8,1,12.65,1,89.28,1
2010,06,01,05,00,2.61,1,-99999,99,2.53,1,22.18,1,103.9,1,22.15,1,2.93,1,191.5,1,5.33,1,1014.8,1,12.65,1,88.48,1
2010,06,01,05,05,3.87,1,-99999,99,3.87,1,22.18,1,103.9,1,22.16,1,2.95,1,190.3,1,4.95,1,1014.9,1,12.64,1,87.65,1
2010,06,01,05,10,6.04,1,-99999,99,5.74,1,22.19,1,103.7,1,22.16,1,2.92,1,194.8,1,5.14,1,1014.9,1,12.64,1,86.79,1
2010,06,01,05,15,11.86,1,-99999,99,11.55,1,22.19,1,103.4,1,22.16,1,3.01,1,193.2,1,4.57,1,1014.9,1,12.64,1,85.91,1
2010,06,01,05,20,13.79,1,-99999,99,13.48,1,22.19,1,103,1,22.18,1,2.79,1,192,1,4.57,1,1015,1,12.64,1,85.02,1
2010,06,01,05,25,21,1,-99999,99,20.41,1,22.13,1,103.1,1,22.18,1,2.65,1,190.1,1,4.57,1,1015,1,12.64,1,84.12,1
2010,06,01,05,30,26.84,1,-99999,99,26.5,1,22.11,1,103.4,1,22.17,1,3.03,1,192.1,1,4.95,1,1015,1,12.6,1,83.2,1
2010,06,01,05,35,28.18,1,-99999,99,28.01,1,22.09,1,104.1,1,22.16,1,2.77,1,193.3,1,4.19,1,1015,1,12.64,1,82.28,1
2010,06,01,05,40,33.76,1,-99999,99,33.31,1,22.07,1,104.6,1,22.15,1,2.44,1,194.1,1,3.81,1,1015,1,12.64,1,81.36,1
2010,06,01,05,45,41.57,1,-99999,99,40.49,1,22.09,1,105,1,22.13,1,2.63,1,193,1,4.76,1,1015,1,12.65,1,80.43,1
2010,06,01,05,50,40.65,2,-99999,99,40.37,2,22.1,1,105.2,8,22.11,1,2.88,1,196.9,1,4.38,1,1015,1,12.64,1,79.49,1
2010,06,01,05,55,32.03,2,-99999,99,32.03,2,22.14,1,105.3,8,22.11,1,2.59,1,190.6,1,4.95,1,1015,1,12.64,1,78.54,1
2010,06,01,06,00,22.85,2,-99999,99,22.85,2,22.21,1,105.1,8,22.11,1,2.74,1,196.6,1,4.57,1,1015,1,12.64,1,77.59,1
2010,06,01,06,05,24.98,2,-99999,99,24.98,2,22.25,1,104.9,1,22.1,1,2.41,1,196.3,1,4.19,1,1015,1,12.64,1,76.64,1
2010,06,01,06,10,35.58,2,-99999,99,35.58,2,22.26,1,104.8,1,22.11,1,2.69,1,195.8,1,4.76,1,1015,1,12.64,1,75.69,1
2010,06,01,06,15,39.76,2,-99999,99,39.76,2,22.31,1,104.6,1,22.11,1,3.49,1,196.7,1,6.86,1,1015,1,12.64,1,74.72,1
2010,06,01,06,20,43.36,2,-99999,99,43.36,2,22.38,1,104.3,1,22.11,1,3,1,205,1,5.33,1,1014.9,1,12.64,1,73.76,1
2010,06,01,06,25,55.69,2,-99999,99,55.69,2,22.41,1,104.2,1,22.13,1,2.67,1,206.6,1,5.9,1,1014.9,1,12.65,1,72.79,1
2010,06,01,06,30,70.69,2,-99999,99,70.69,2,22.43,1,104.1,1,22.15,1,2.33,1,201.6,1,4.19,1,1014.9,1,12.63,1,71.82,1
2010,06,01,06,35,75.54,2,-99999,99,75.54,2,22.46,1,104,1,22.18,1,2.67,1,198.6,1,4.38,1,1014.9,1,12.69,1,70.85,1
2010,06,01,06,40,72.42,2,-99999,99,72.42,2,22.5,1,103.8,1,22.21,1,2.88,1,205.5,1,6.47,1,1014.8,1,12.7,1,69.87,1
2010,06,01,06,45,72.02,2,-99999,99,72.02,2,22.56,1,103.5,1,22.26,1,2.48,1,199,1,4.95,1,1014.8,1,12.72,1,68.89,1
2010,06,01,06,50,88.11,2,-99999,99,88.11,2,22.59,1,103.4,1,22.31,1,2.54,1,196,1,4.57,1,1014.7,1,12.77,1,67.9,1
2010,06,01,06,55,99.78,2,-99999,99,99.78,2,22.64,1,103.4,1,22.36,1,2.23,1,195.4,1,4,1,1014.7,1,12.84,1,66.92,1
2010,06,01,07,00,111.69,2,-99999,99,111.69,2,22.68,1,103.2,1,22.42,1,2.88,1,189.6,1,5.14,1,1014.6,1,12.91,1,65.93,1
2010,06,01,07,05,138.33,2,-99999,99,138.33,2,22.74,1,102.9,1,22.48,1,2.79,1,189.9,1,4.95,1,1014.7,1,13.01,1,64.94,1
2010,06,01,07,10,168.94,2,-99999,99,168.94,2,22.82,1,102.7,1,22.56,1,2.97,1,197.4,1,5.52,1,1014.6,1,13.14,1,63.95,1
2010,06,01,07,15,188.46,2,-99999,99,188.46,2,22.91,1,102.3,1,22.64,1,3.49,1,197.3,1,5.52,1,1014.6,1,13.27,1,62.95,1
2010,06,01,07,20,204.43,2,-99999,99,204.43,2,23.06,1,102,1,22.73,1,2.21,1,194.1,1,4.19,1,1014.6,1,13.32,1,61.96,1
2010,06,01,07,25,225.5,2,-99999,99,225.5,2,23.19,1,101.7,1,22.83,1,2.49,1,198.8,1,4.38,1,1014.6,1,13.31,1,60.96,1
2010,06,01,07,30,283.7,2,-99999,99,248.81,2,23.32,1,101.3,1,22.95,1,2.6,1,194.4,1,4.76,1,1014.6,1,13.28,1,59.96,1
2010,06,01,07,35,403.34,2,-99999,99,294.39,2,23.52,1,100.8,1,23.08,1,2.74,1,193.8,1,4.76,1,1014.6,1,13.29,1,58.96,1
2010,06,01,07,40,465.94,2,-99999,99,320.11,2,23.83,1,99.9,1,23.25,1,2.97,1,195.7,1,5.52,1,1014.7,1,13.28,1,57.96,1
2010,06,01,07,45,475.78,2,-99999,99,339.75,2,24.01,1,99.1,1,23.46,1,3.65,1,217.3,1,5.52,1,1014.7,1,13.27,1,56.96,1
2010,06,01,07,50,396.42,2,-99999,99,333.3,2,24.15,1,98.5,1,23.72,1,3.33,1,211.4,1,5.52,1,1014.8,1,13.25,1,55.95,1
2010,06,01,07,55,380.69,2,-99999,99,299.82,2,24.17,1,97.7,1,24.01,1,4.66,1,219.5,1,7.43,1,1014.7,1,13.24,1,54.95,1
2010,06,01,08,00,328.65,2,-99999,99,284.76,2,24.18,1,97.8,1,24.31,1,3.26,1,219.7,1,6.86,1,1014.7,1,13.24,1,53.94,1
2010,06,01,08,05,408.42,2,-99999,99,284.82,2,24.28,1,97.7,1,24.6,1,3.32,1,206.7,1,6.47,1,1014.7,1,13.24,1,52.93,1
2010,06,01,08,10,475.09,2,-99999,99,296.56,2,24.56,1,97,1,24.87,1,3.83,1,189.3,1,6.09,1,1014.7,1,13.23,1,51.93,1
2010,06,01,08,15,452.71,2,-99999,99,317.66,2,24.65,1,97,1,25.12,1,2.87,1,200.7,1,5.14,1,1014.7,1,13.22,1,50.92,1
2010,06,01,08,20,462.06,2,-99999,99,357.16,2,24.88,1,96.4,1,25.39,1,3.49,1,189.1,1,6.47,1,1014.7,1,13.22,1,49.91,1
2010,06,01,08,25,550.24,2,-99999,99,415.98,2,24.76,1,96.1,1,25.66,1,4.7,1,190.9,1,7.24,1,1014.7,1,13.21,1,48.91,1
2010,06,01,08,30,531.12,2,-99999,99,416.36,2,24.84,1,96,1,25.94,1,3.48,1,201.2,1,6.86,1,1014.8,1,13.19,1,47.9,1
2010,06,01,08,35,511.24,2,-99999,99,410.12,2,24.87,1,96,1,26.21,1,3.1,1,205.9,1,5.9,1,1014.7,1,13.2,1,46.89,1
2010,06,01,08,40,388.31,2,-99999,99,364.95,2,25,1,96,1,26.47,1,2.82,1,205.8,1,4.57,1,1014.7,1,13.19,1,45.89,1
2010,06,01,08,45,333.22,2,-99999,99,325.14,2,24.93,1,96.1,1,26.73,1,3.94,1,217.3,1,6.86,1,1014.6,1,13.19,1,44.88,1
2010,06,01,08,50,323.09,2,-99999,99,303.54,2,24.88,1,96.2,1,26.97,1,4,1,190.4,1,6.86,1,1014.6,1,13.19,1,43.88,1
2010,06,01,08,55,310.58,2,-99999,99,297.49,2,25,1,96.1,1,27.17,1,3.26,1,199.8,1,6.09,1,1014.7,1,13.19,1,42.88,1
2010,06,01,09,00,304.26,2,-99999,99,300.14,2,24.88,1,96.5,1,27.33,1,3.13,1,223.7,1,6.09,1,1014.6,1,13.19,1,41.88,1
2010,06,01,09,05,305.96,2,-99999,99,305.96,2,24.81,1,96.3,1,27.45,1,3.96,1,204,1,6.66,1,1014.6,1,13.19,1,40.88,1
2010,06,01,09,10,388.67,2,-99999,99,376.46,2,24.82,1,96.1,1,27.55,1,3.4,1,223,1,7.43,1,1014.6,1,13.19,1,39.88,1
2010,06,01,09,15,362.95,2,-99999,99,353.49,2,24.96,1,96.1,1,27.63,1,3.39,1,228.2,1,6.86,1,1014.5,1,13.19,1,38.88,1
2010,06,01,09,20,331.98,2,-99999,99,327.61,2,25.02,1,96.1,1,27.68,1,3.09,1,206.8,1,5.52,1,1014.5,1,13.19,1,37.89,1
2010,06,01,09,25,297.03,2,-99999,99,295.02,2,25.15,1,95.9,1,27.73,1,3.37,1,227.7,1,8,1,1014.5,1,13.19,1,36.9,1
2010,06,01,09,30,282.8,2,-99999,99,282.8,2,24.9,1,95.8,1,27.79,1,5.06,1,216.2,1,9.14,1,1014.4,1,13.17,1,35.92,1
2010,06,01,09,35,346.63,2,-99999,99,346.63,2,24.86,1,96.2,1,27.83,1,3.58,1,226.8,1,5.71,1,1014.3,1,13.19,1,34.94,1
2010,06,01,09,40,377.14,2,-99999,99,376.93,2,25.11,1,95.9,1,27.86,1,2.76,1,199.8,1,4.57,1,1014.3,1,13.19,1,33.96,1
2010,06,01,09,45,404.98,2,-99999,99,404.98,2,25.29,1,95.3,1,27.88,1,3.65,1,197.8,1,7.81,1,1014.2,1,13.19,1,32.99,1
2010,06,01,09,50,444.02,2,-99999,99,416.61,2,25.18,1,95.4,1,27.91,1,3.93,1,209.8,1,6.47,1,1014.2,1,13.19,1,32.02,1
2010,06,01,09,55,480.08,2,-99999,99,432.01,2,25.29,1,95,1,27.94,1,3.83,1,202.7,1,6.09,1,1014.2,1,13.19,1,31.06,1
2010,06,01,10,00,580.51,2,-99999,99,488.18,2,25.37,1,95.2,1,27.99,1,3.27,1,220.4,1,6.66,1,1014.1,1,13.18,1,30.11,1
2010,06,01,10,05,633.94,2,-99999,99,511.63,2,25.46,1,94.6,1,28.06,1,4.62,1,196.7,1,8.19,1,1014.1,1,13.18,1,29.17,1
2010,06,01,10,10,530.39,2,-99999,99,482.57,2,25.57,1,94.7,1,28.14,1,4.17,1,208.4,1,8.19,1,1014.1,1,13.17,1,28.23,1
2010,06,01,10,15,462.92,2,-99999,99,447.16,2,25.6,1,94.4,1,28.24,1,3.64,1,194.8,1,6.86,1,1014.1,1,13.17,1,27.3,1
2010,06,01,10,20,440.27,2,-99999,99,436.58,2,25.76,1,93.7,1,28.36,1,4.11,1,203.1,1,7.62,1,1014.1,1,13.17,1,26.39,1
2010,06,01,10,25,501.49,2,-99999,99,468.96,2,25.68,1,93.9,1,28.48,1,3.94,1,191.8,1,6.66,1,1014.1,1,13.16,1,25.48,1
2010,06,01,10,30,508.89,2,-99999,99,482.15,2,25.72,1,93.9,1,28.59,1,4.33,1,193.9,1,6.66,1,1014,1,13.14,1,24.59,1
2010,06,01,10,35,481.16,2,-99999,99,469.09,2,25.66,1,94.1,1,28.69,1,3.64,1,201.8,1,5.9,1,1014,1,13.15,1,23.72,1
2010,06,01,10,40,539.53,2,-99999,99,472.31,2,25.84,1,93.7,1,28.79,1,2.93,1,202.7,1,5.33,1,1014,1,13.16,1,22.86,1
2010,06,01,10,45,665.35,2,-99999,99,525.34,2,26,1,92.4,1,28.89,1,4.72,1,194.9,1,6.86,1,1014,1,13.16,1,22.02,1
2010,06,01,10,50,641.16,2,-99999,99,532.29,2,26.12,1,92.1,1,28.99,1,3.76,1,192.4,1,7.81,1,1014,1,13.15,1,21.21,1
2010,06,01,10,55,535.95,2,-99999,99,460.75,2,26.27,1,91.8,1,29.1,1,3.27,1,199.7,1,6.09,1,1014,1,13.15,1,20.41,1
2010,06,01,11,00,481.65,2,-99999,99,424.57,2,26.34,1,92.1,1,29.22,1,3.09,1,209.4,1,7.05,1,1014,1,13.15,1,19.65,1
2010,06,01,11,05,427.63,2,-99999,99,410.04,2,26.19,1,92.2,1,29.35,1,4.23,1,190.5,1,7.05,1,1013.9,1,13.15,1,18.91,1
2010,06,01,11,10,652.2,2,-99999,99,505.33,2,26.18,1,92.7,1,29.48,1,3.13,1,200.7,1,4.76,1,1013.9,1,13.14,1,18.21,1
2010,06,01,11,15,383.73,2,-99999,99,376.33,2,26.29,1,92.4,1,29.59,1,4.3,1,182.6,1,7.43,1,1013.8,1,13.14,1,17.55,1
2010,06,01,11,20,390.19,2,-99999,99,352.47,2,26.25,1,92,1,29.71,1,3.92,1,192.9,1,7.05,1,1013.7,1,13.14,1,16.94,1
2010,06,01,11,25,245.71,2,-99999,99,245.71,2,26.23,1,91.6,1,29.81,1,3.62,1,206.2,1,6.86,1,1013.7,1,13.14,1,16.37,1
2010,06,01,11,30,407.76,2,-99999,99,407.76,2,26.1,1,91.8,1,29.89,1,3.79,1,212.8,1,8,1,1013.7,1,13.13,1,15.85,1
2010,06,01,11,35,437.4,2,-99999,99,437.4,2,26.2,1,91.2,1,29.93,1,3.51,1,204.5,1,7.24,1,1013.7,1,13.14,1,15.4,1
2010,06,01,11,40,436.64,2,-99999,99,436.64,2,26.18,1,90.9,1,29.95,1,4.02,1,210.7,1,7.24,1,1013.6,1,13.14,1,15.01,1
2010,06,01,11,45,400.76,2,-99999,99,400.76,2,26.08,1,91.5,1,29.96,1,3.77,1,215.7,1,7.05,1,1013.5,1,13.15,1,14.69,1
2010,06,01,11,50,382.61,2,-99999,99,382.61,2,26.16,1,91.2,1,29.96,1,3.49,1,210.5,1,6.28,1,1013.4,1,13.15,1,14.44,1
2010,06,01,11,55,404.08,2,-99999,99,404.08,2,26.15,1,91.8,1,29.96,1,3.14,1,204.1,1,5.71,1,1013.4,1,13.15,1,14.27,1
2010,06,01,12,00,354.86,2,-99999,99,354.86,2,26.18,1,92.2,1,29.96,1,3.34,1,235.8,1,5.9,1,1013.3,1,13.15,1,14.18,1
2010,06,01,12,05,363.03,2,-99999,99,363.03,2,26.1,1,92.8,1,29.94,1,3.39,1,194.6,1,6.47,1,1013.3,1,13.15,1,14.18,1
2010,06,01,12,10,353.62,2,-99999,99,353.62,2,26.13,1,91.7,1,29.93,1,3.85,1,189.1,1,7.05,1,1013.2,1,13.15,1,14.26,1
2010,06,01,12,15,463.78,2,-99999,99,431.42,2,26.12,1,92.7,1,29.91,1,3.31,1,197.2,1,6.09,1,1013.1,1,13.15,1,14.42,1
2010,06,01,12,20,1005.3,2,-99999,99,533.02,2,26.28,1,91.7,1,29.9,1,3.53,1,203.1,1,6.09,1,1013.2,1,13.15,1,14.66,1
2010,06,01,12,25,1230.7,29,-99999,99,497.27,28,26.76,1,88.1,1,29.9,1,4.49,1,195.4,1,7.24,1,1013.1,1,13.15,1,14.97,1
2010,06,01,12,30,1094.9,2,-99999,99,507.63,2,26.97,1,86.6,1,29.92,1,4.77,1,194.3,1,7.62,1,1013,1,13.13,1,15.36,1
2010,06,01,12,35,614.85,2,-99999,99,445.28,2,26.94,1,88.2,1,30,1,4.1,1,199.6,1,7.43,1,1012.9,1,13.13,1,15.81,1
2010,06,01,12,40,826.31,2,-99999,99,462.97,2,26.68,1,87.6,1,30.11,1,5.56,1,192.9,1,8.38,1,1012.8,1,13.13,1,16.31,1
2010,06,01,12,45,693.1,2,-99999,99,438.97,2,26.64,1,88,1,30.22,1,3.91,1,207.8,1,6.28,1,1012.9,1,13.13,1,16.88,1
2010,06,01,12,50,885.04,2,-99999,99,417.39,2,27.07,1,87.2,1,30.33,1,2.96,1,191.5,1,5.9,1,1012.9,1,13.13,1,17.49,1
2010,06,01,12,55,1115.2,2,-99999,99,379.77,2,27.49,1,84.8,1,30.42,1,4.41,1,193.9,1,7.24,1,1012.7,1,13.13,1,18.15,1
2010,06,01,13,00,983.92,2,-99999,99,370.73,2,27.46,1,83.7,1,30.53,1,3.89,1,229.6,1,7.24,1,1012.7,1,13.13,1,18.84,1
2010,06,01,13,05,887.8,2,-99999,99,381.38,2,27.29,1,83.7,1,30.65,1,4.46,1,193.5,1,7.24,1,1012.7,1,13.12,1,19.57,1
2010,06,01,13,10,975.29,2,-99999,99,332.82,2,27.36,1,84,1,30.78,1,3.49,1,203.8,1,5.9,1,1012.7,1,13.12,1,20.34,1
2010,06,01,13,15,669.45,2,-99999,99,328.54,2,27.75,1,83.1,1,30.91,1,3.43,1,191.5,1,6.28,1,1012.6,1,13.12,1,21.13,1
2010,06,01,13,20,658.62,2,-99999,99,365.88,2,27.51,1,84.1,1,31.03,1,4.58,1,187.4,1,8.19,1,1012.6,1,13.11,1,21.94,1
2010,06,01,13,25,632.59,2,-99999,99,321.71,2,27.05,1,85.2,1,31.14,1,4.83,1,192.9,1,7.24,1,1012.5,1,13.11,1,22.78,1
2010,06,01,13,30,651.21,2,-99999,99,279.6,2,26.89,1,85.1,1,31.24,1,4.68,1,196.5,1,7.62,1,1012.3,1,13.1,1,23.63,1
2010,06,01,13,35,587.22,2,-99999,99,277.93,2,26.87,1,84.5,1,31.31,1,4.83,1,194.3,1,7.43,1,1012.2,1,13.11,1,24.51,1
2010,06,01,13,40,659,2,-99999,99,300.64,2,27.22,1,82.8,1,31.36,1,3.4,1,196.2,1,5.9,1,1012.2,1,13.12,1,25.39,1
2010,06,01,13,45,624.79,2,-99999,99,360.66,2,27.51,1,83,1,31.39,1,4.13,1,187.1,1,7.24,1,1012.1,1,13.12,1,26.3,1
2010,06,01,13,50,722.78,2,-99999,99,343.2,2,27.46,1,83.3,1,31.39,1,3.23,1,200.7,1,5.52,1,1012,1,13.12,1,27.21,1
2010,06,01,13,55,790.55,2,-99999,99,313.37,2,27.78,1,84.3,1,31.41,1,2.76,1,185.8,1,4.57,1,1012,1,13.11,1,28.14,1
2010,06,01,14,00,984.53,2,-99999,99,295.97,2,28.43,1,82.9,1,31.44,1,2.75,1,195.5,1,4.95,1,1012,1,13.11,1,29.07,1
2010,06,01,14,05,503.73,2,-99999,99,310.33,2,28.47,1,81.3,1,31.52,1,4.01,1,204.8,1,6.86,1,1011.8,1,13.1,1,30.01,1
2010,06,01,14,10,420.36,2,-99999,99,342.55,2,27.78,1,83.1,1,31.64,1,3.15,1,184.5,1,5.9,1,1011.8,1,13.1,1,30.97,1
2010,06,01,14,15,722.67,2,-99999,99,353.82,2,27.74,1,82.1,1,31.75,1,4.05,1,179.3,1,6.47,1,1011.7,1,13.1,1,31.93,1
2010,06,01,14,20,499.29,2,-99999,99,282.15,2,27.62,1,83.4,1,31.86,1,3.85,1,188.3,1,6.47,1,1011.6,1,13.1,1,32.89,1
2010,06,01,14,25,653.1,2,-99999,99,248.41,2,27.62,1,83,1,31.93,1,4.59,1,181.6,1,6.47,1,1011.5,1,13.1,1,33.86,1
2010,06,01,14,30,891.65,2,-99999,99,193.88,2,27.7,1,82.8,1,31.98,1,4.07,1,173.5,1,6.28,1,1011.5,1,13.09,1,34.84,1
2010,06,01,14,35,655.56,2,-99999,99,302.11,2,28.31,1,81.3,1,32.01,1,3.74,1,172.6,1,7.24,1,1011.4,1,13.1,1,35.82,1
2010,06,01,14,40,582.2,2,-99999,99,403.5,2,28.16,1,82,1,32.06,1,3.94,1,183.1,1,6.09,1,1011.3,1,13.09,1,36.8,1
2010,06,01,14,45,453.43,2,-99999,99,436.16,2,27.88,1,82.9,1,32.12,1,3.76,1,187.1,1,6.86,1,1011.3,1,13.09,1,37.79,1
2010,06,01,14,50,376.42,2,-99999,99,372.95,2,27.88,1,83,1,32.19,1,3.48,1,183.4,1,6.09,1,1011.2,1,13.1,1,38.78,1
2010,06,01,14,55,516.58,2,-99999,99,268.65,2,27.84,1,83.6,1,32.25,1,3.04,1,186.7,1,5.33,1,1011.1,1,13.1,1,39.78,1
2010,06,01,15,00,436.71,2,-99999,99,235.69,2,28.08,1,83.3,1,32.27,1,2.9,1,186.7,1,4.95,1,1011,1,13.1,1,40.77,1
2010,06,01,15,05,300.63,2,-99999,99,206.11,2,27.8,1,84.9,1,32.29,1,3.26,1,184.4,1,5.33,1,1010.9,1,13.1,1,41.77,1
2010,06,01,15,10,404.99,2,-99999,99,247.75,2,27.49,1,85.3,1,32.31,1,2.76,1,189.2,1,5.14,1,1010.9,1,13.1,1,42.77,1
2010,06,01,15,15,489.85,2,-99999,99,287.36,2,27.72,1,85.4,1,32.28,1,3.18,1,171.8,1,7.24,1,1010.8,1,13.11,1,43.77,1
2010,06,01,15,20,487.09,2,-99999,99,260.17,2,27.76,1,85,1,32.27,1,4.01,1,174.5,1,7.24,1,1010.7,1,13.11,1,44.78,1
2010,06,01,15,25,547,2,-99999,99,222.75,2,27.86,1,84.5,1,32.24,1,4.22,1,168.2,1,7.24,1,1010.7,1,13.11,1,45.78,1
2010,06,01,15,30,686.85,2,-99999,99,169.7,2,28.15,1,84.4,1,32.21,1,3.38,1,167.9,1,5.71,1,1010.7,1,13.09,1,46.79,1
2010,06,01,15,35,662.29,2,-99999,99,230.77,2,28.56,1,82.5,1,32.21,1,3.44,1,197.4,1,6.86,1,1010.7,1,13.1,1,47.79,1
2010,06,01,15,40,410.45,2,-99999,99,253.56,2,28.4,1,83.2,1,32.24,1,3.45,1,185.1,1,5.9,1,1010.6,1,13.1,1,48.8,1
2010,06,01,15,45,401.68,2,-99999,99,256.32,2,28.23,1,82.5,1,32.31,1,4.05,1,178.7,1,7.81,1,1010.6,1,13.1,1,49.8,1
2010,06,01,15,50,316.16,2,-99999,99,233.29,2,28.08,1,82.5,1,32.39,1,4.95,1,183.3,1,7.05,1,1010.5,1,13.1,1,50.81,1
2010,06,01,15,55,427.21,2,-99999,99,178.83,2,27.99,1,82.9,1,32.44,1,4.03,1,181.1,1,7.62,1,1010.5,1,13.1,1,51.82,1
2010,06,01,16,00,554.95,2,-99999,99,158.71,2,28.16,1,81.9,1,32.45,1,4.41,1,187.7,1,7.43,1,1010.3,1,13.11,1,52.82,1
2010,06,01,16,05,597.14,2,-99999,99,196.79,2,28.4,1,81.6,1,32.45,1,4.3,1,171.8,1,7.24,1,1010.3,1,13.11,1,53.83,1
2010,06,01,16,10,657.37,13,-99999,99,279.1,12,28.47,1,80.6,1,32.47,1,3.86,1,182,1,6.66,1,1010.3,1,13.1,1,54.84,1
2010,06,01,16,15,345.86,2,-99999,99,227.36,2,28.73,1,79.8,1,32.5,1,3.73,1,172.5,1,7.24,1,1010.3,1,13.1,1,55.84,1
2010,06,01,16,20,195.36,2,-99999,99,190.17,2,28.28,1,80.8,1,32.56,1,5.54,1,191.3,1,8.76,1,1010.3,1,13.1,1,56.84,1
2010,06,01,16,25,260.36,2,-99999,99,166.47,2,27.94,1,82.1,1,32.63,1,4.88,1,184.4,1,7.81,1,1010.3,1,13.09,1,57.85,1
2010,06,01,16,30,98.07,2,-99999,99,98.07,2,27.69,1,82.6,1,32.65,1,4.7,1,189.5,1,6.86,1,1010.3,1,13.01,1,58.85,1
2010,06,01,16,35,110.71,2,-99999,99,110.71,2,27.44,1,83.3,1,32.59,1,4.66,1,187.2,1,8,1,1010.2,1,13.04,1,59.85,1
2010,06,01,16,40,410.07,2,-99999,99,193.65,2,27.56,1,82.3,1,32.47,1,4.18,1,190.4,1,7.05,1,1010.1,1,13.11,1,60.85,1
2010,06,01,16,45,162.09,2,-99999,99,162.09,2,27.79,1,81,1,32.31,1,4.24,1,184.4,1,9.71,1,1010,1,13.11,1,61.84,1
2010,06,01,16,50,202.71,2,-99999,99,136.28,2,27.68,1,80.6,1,32.14,1,4.01,1,193.3,1,7.05,1,1010,1,13.09,1,62.84,1
2010,06,01,16,55,367.79,2,-99999,99,159.11,2,27.88,1,79.9,1,31.97,1,3.55,1,189.7,1,5.9,1,1010,1,13.12,1,63.83,1
2010,06,01,17,00,241.84,2,-99999,99,148.86,2,28.03,1,78.3,1,31.82,1,4.27,1,187.9,1,7.81,1,1010,1,13.1,1,64.83,1
2010,06,01,17,05,323.79,2,-99999,99,108.62,2,28.16,1,76.9,1,31.7,1,4.85,1,189.6,1,7.24,1,1009.9,1,13.07,1,65.82,1
2010,06,01,17,10,335.9,2,-99999,99,89.39,2,28.37,1,75.3,1,31.62,1,4.47,1,196.4,1,7.62,1,1009.9,1,13.04,1,66.8,1
2010,06,01,17,15,315.14,2,-99999,99,83.29,2,28.46,1,74.5,1,31.56,1,5.32,1,193.2,1,8.38,1,1009.9,1,13.02,1,67.79,1
2010,06,01,17,20,314.28,2,-99999,99,101.46,2,28.4,1,74.5,1,31.55,1,4.41,1,187.9,1,7.43,1,1009.9,1,13.06,1,68.77,1
2010,06,01,17,25,294.66,2,-99999,99,92.9,2,28.49,1,74.4,1,31.56,1,4.51,1,188.3,1,7.05,1,1009.9,1,13.06,1,69.75,1
2010,06,01,17,30,261.67,2,-99999,99,74.34,2,28.48,1,74.8,1,31.59,1,4.53,1,182.7,1,7.62,1,1009.9,1,12.96,1,70.73,1
2010,06,01,17,35,247.6,2,-99999,99,75.04,2,28.35,1,75.3,1,31.64,1,3.96,1,183.9,1,7.24,1,1009.9,1,12.97,1,71.7,1